• In United Kingdom
  • List of Countries
  • For 7 days
  • Water Temperature
  • Satellite Maps
  • Weather Map
  • Weather Widgets
  • user-avatar
    Login

    Hourly Weather Townsville

    Today, 19 October, Thursday

    Time Temperature Precipitation Wind Pressure Humidity
    00:00 +23°C° 1.2 mm 5 mps 753 mmHg 94%
    01:00 +23°C° 1.2 mm 5 mps 753 mmHg 96%
    02:00 +23°C° 1.5 mm 5 mps 753 mmHg 95%
    03:00 +23°C° 1.5 mm 6 mps 753 mmHg 95%
    04:00 +23°C° 0 mm 5 mps 753 mmHg 96%
    05:00 +23°C° 3.6 mm 5 mps 753 mmHg 96%
    06:00 +24°C° 3.6 mm 6 mps 753 mmHg 96%
    07:00 +24°C° 3.6 mm 6 mps 754 mmHg 95%
    08:00 +24°C° 2.2 mm 7 mps 754 mmHg 94%
    09:00 +24°C° 2.2 mm 7 mps 754 mmHg 92%
    10:00 +26°C° 0 mm 8 mps 754 mmHg 93%
    11:00 +26°C° 1.3 mm 8 mps 754 mmHg 90%
    12:00 +26°C° 1.3 mm 7 mps 754 mmHg 88%
    13:00 +27°C° 1.3 mm 7 mps 754 mmHg 86%
    14:00 +27°C° 1 mm 7 mps 754 mmHg 84%
    15:00 +27°C° 1 mm 7 mps 753 mmHg 83%
    16:00 +28°C° 1 mm 7 mps 753 mmHg 81%
    17:00 +27°C° 0.8 mm 7 mps 754 mmHg 85%
    18:00 +26°C° 0.8 mm 7 mps 754 mmHg 89%
    19:00 +24°C° 0.8 mm 6 mps 754 mmHg 93%
    20:00 +24°C° 0.8 mm 6 mps 755 mmHg 93%
    21:00 +24°C° 0.8 mm 7 mps 755 mmHg 93%
    22:00 +24°C° 0.8 mm 7 mps 756 mmHg 93%
    23:00 +24°C° 1.2 mm 7 mps 755 mmHg 93%

    Tomorrow, 20 October, Friday

    Time Temperature Precipitation Wind Pressure Humidity
    00:00 +24°C° 1.2 mm 6 mps 755 mmHg 93%
    01:00 +24°C° 1.2 mm 6 mps 755 mmHg 93%
    02:00 +24°C° 0.8 mm 6 mps 755 mmHg 93%
    03:00 +24°C° 0.8 mm 6 mps 754 mmHg 93%
    04:00 +24°C° 0.8 mm 6 mps 754 mmHg 93%
    05:00 +24°C° 0.5 mm 6 mps 755 mmHg 92%
    06:00 +24°C° 0.5 mm 6 mps 755 mmHg 91%
    07:00 +24°C° 0.5 mm 7 mps 755 mmHg 90%
    08:00 +26°C° 0.1 mm 6 mps 755 mmHg 85%
    09:00 +27°C° 0.1 mm 6 mps 755 mmHg 81%
    10:00 +28°C° 0.1 mm 6 mps 756 mmHg 76%
    11:00 +28°C° 0.1 mm 6 mps 755 mmHg 73%
    12:00 +29°C° 0.1 mm 6 mps 755 mmHg 70%
    13:00 +29°C° 0.1 mm 6 mps 754 mmHg 67%
    14:00 +29°C° 0 mm 6 mps 754 mmHg 68%
    15:00 +28°C° 0 mm 6 mps 753 mmHg 70%
    16:00 +28°C° 0 mm 6 mps 753 mmHg 72%
    17:00 +27°C° 0 mm 6 mps 753 mmHg 75%
    18:00 +26°C° 0 mm 5 mps 754 mmHg 78%
    19:00 +25°C° 0 mm 5 mps 754 mmHg 82%
    20:00 +25°C° 0 mm 5 mps 754 mmHg 83%
    21:00 +25°C° 0 mm 5 mps 755 mmHg 85%
    22:00 +23°C° 0 mm 5 mps 755 mmHg 87%
    23:00 +23°C° 0 mm 5 mps 755 mmHg 88%

    Day after tomorrow, 21 October, Saturday

    Time Temperature Precipitation Wind Pressure Humidity
    00:00 +23°C° 0 mm 4 mps 754 mmHg 90%
    01:00 +22°C° 0 mm 4 mps 754 mmHg 92%
    02:00 +22°C° 0 mm 4 mps 753 mmHg 92%
    03:00 +22°C° 0 mm 4 mps 753 mmHg 93%
    04:00 +22°C° 0 mm 3 mps 752 mmHg 93%
    05:00 +22°C° 0 mm 3 mps 753 mmHg 91%
    06:00 +24°C° 0 mm 3 mps 753 mmHg 88%
    07:00 +24°C° 0 mm 3 mps 754 mmHg 86%
    08:00 +26°C° 0 mm 3 mps 754 mmHg 77%
    09:00 +28°C° 0 mm 3 mps 754 mmHg 68%
    10:00 +30°C° 0 mm 3 mps 754 mmHg 59%
    11:00 +30°C° 0 mm 3 mps 753 mmHg 59%
    12:00 +30°C° 0 mm 3 mps 753 mmHg 59%
    13:00 +29°C° 0 mm 3 mps 752 mmHg 60%
    14:00 +29°C° 0.1 mm 3 mps 751 mmHg 62%
    15:00 +29°C° 0.1 mm 3 mps 751 mmHg 65%
    16:00 +28°C° 0.1 mm 3 mps 750 mmHg 67%
    17:00 +27°C° 0.2 mm 3 mps 751 mmHg 73%
    18:00 +26°C° 0.2 mm 3 mps 751 mmHg 78%
    19:00 +25°C° 0.2 mm 3 mps 752 mmHg 84%
    20:00 +25°C° 0.1 mm 2 mps 752 mmHg 85%
    21:00 +25°C° 0.1 mm 2 mps 752 mmHg 87%
    22:00 +25°C° 0.1 mm 2 mps 752 mmHg 89%
    23:00 +25°C° 0.1 mm 1 mps 752 mmHg 90%

    22 October, Sunday

    Time Temperature Precipitation Wind Pressure Humidity
    00:00 +25°C° 0.1 mm 1 mps 751 mmHg 90%
    01:00 +24°C° 0.1 mm 1 mps 751 mmHg 91%
    02:00 +24°C° 0.4 mm 1 mps 751 mmHg 92%
    03:00 +22°C° 0.4 mm 0 mps 750 mmHg 92%
    04:00 +22°C° 0.4 mm 0 mps 750 mmHg 92%
    05:00 +22°C° 0.3 mm 0 mps 751 mmHg 90%
    06:00 +25°C° 0.3 mm 1 mps 751 mmHg 87%
    07:00 +25°C° 0.3 mm 1 mps 752 mmHg 84%
    08:00 +27°C° 0.4 mm 1 mps 752 mmHg 75%
    09:00 +29°C° 0.4 mm 1 mps 752 mmHg 66%
    10:00 +31°C° 0.4 mm 1 mps 752 mmHg 57%
    11:00 +31°C° 0.2 mm 1 mps 751 mmHg 56%
    12:00 +31°C° 0.2 mm 2 mps 750 mmHg 55%
    13:00 +31°C° 0.2 mm 2 mps 750 mmHg 53%
    14:00 +31°C° 0.1 mm 2 mps 750 mmHg 54%
    15:00 +31°C° 0.1 mm 3 mps 749 mmHg 55%
    16:00 +31°C° 0.1 mm 3 mps 749 mmHg 55%
    17:00 +30°C° 0.1 mm 3 mps 749 mmHg 62%
    18:00 +28°C° 0.1 mm 3 mps 750 mmHg 69%
    19:00 +27°C° 0.1 mm 3 mps 750 mmHg 75%
    20:00 +26°C° 0.2 mm 3 mps 751 mmHg 79%
    21:00 +26°C° 0.2 mm 3 mps 751 mmHg 82%
    22:00 +25°C° 0.2 mm 3 mps 752 mmHg 85%
    23:00 +25°C° 0.2 mm 3 mps 751 mmHg 86%

    23 October, Monday

    Time Temperature Precipitation Wind Pressure Humidity
    00:00 +25°C° 0.2 mm 3 mps 751 mmHg 86%
    01:00 +25°C° 0.2 mm 3 mps 751 mmHg 87%
    02:00 +25°C° 0.3 mm 2 mps 751 mmHg 85%
    03:00 +24°C° 0.3 mm 2 mps 751 mmHg 84%
    04:00 +24°C° 0.3 mm 2 mps 751 mmHg 82%
    05:00 +25°C° 0 mm 2 mps 751 mmHg 78%
    06:00 +26°C° 0 mm 2 mps 752 mmHg 74%
    07:00 +26°C° 0 mm 2 mps 752 mmHg 70%
    08:00 +29°C° 0 mm 2 mps 753 mmHg 59%
    09:00 +31°C° 0 mm 2 mps 753 mmHg 49%
    10:00 +34°C° 0 mm 2 mps 753 mmHg 39%
    11:00 +35°C° 0 mm 2 mps 752 mmHg 37%
    12:00 +36°C° 0 mm 2 mps 752 mmHg 35%
    13:00 +37°C° 0 mm 3 mps 752 mmHg 32%
    14:00 +35°C° 0.1 mm 4 mps 751 mmHg 40%
    15:00 +34°C° 0.1 mm 4 mps 751 mmHg 47%
    16:00 +32°C° 0.1 mm 5 mps 751 mmHg 54%
    17:00 +30°C° 0 mm 5 mps 752 mmHg 63%
    18:00 +28°C° 0 mm 4 mps 752 mmHg 73%
    19:00 +26°C° 0 mm 4 mps 753 mmHg 83%
    20:00 +26°C° 0 mm 4 mps 753 mmHg 83%
    21:00 +26°C° 0 mm 4 mps 754 mmHg 84%
    22:00 +26°C° 0 mm 4 mps 754 mmHg 85%
    23:00 +26°C° 0 mm 4 mps 754 mmHg 85%

    24 October, Tuesday

    Time Temperature Precipitation Wind Pressure Humidity
    00:00 +25°C° 0 mm 4 mps 754 mmHg 86%
    01:00 +25°C° 0 mm 3 mps 754 mmHg 86%
    02:00 +25°C° 0.1 mm 3 mps 754 mmHg 87%
    03:00 +25°C° 0.1 mm 3 mps 754 mmHg 88%
    04:00 +24°C° 0.1 mm 3 mps 754 mmHg 89%
    05:00 +25°C° 0 mm 3 mps 755 mmHg 86%
    06:00 +25°C° 0 mm 3 mps 755 mmHg 84%
    07:00 +26°C° 0 mm 3 mps 756 mmHg 81%
    08:00 +27°C° 0.2 mm 3 mps 756 mmHg 75%
    09:00 +29°C° 0.2 mm 3 mps 756 mmHg 69%
    10:00 +30°C° 0.2 mm 4 mps 756 mmHg 62%
    11:00 +32°C° 0 mm 4 mps 756 mmHg 59%
    12:00 +32°C° 0 mm 4 mps 755 mmHg 56%
    13:00 +33°C° 0 mm 4 mps 755 mmHg 52%
    14:00 +32°C° 0 mm 4 mps 754 mmHg 54%
    15:00 +32°C° 0 mm 4 mps 754 mmHg 56%
    16:00 +30°C° 0 mm 4 mps 754 mmHg 58%
    17:00 +29°C° 0 mm 4 mps 754 mmHg 64%
    18:00 +27°C° 0 mm 4 mps 755 mmHg 70%
    19:00 +26°C° 0 mm 4 mps 755 mmHg 76%
    20:00 +25°C° 0 mm 4 mps 756 mmHg 77%
    21:00 +25°C° 0 mm 4 mps 756 mmHg 79%
    22:00 +25°C° 0 mm 4 mps 756 mmHg 80%
    23:00 +25°C° 0 mm 3 mps 756 mmHg 80%
    Show more